Elkins, WV

6:20 PM EST on February 22, 2018 (GMT -0500)
Elkins-Randolph County

Weather History for KEKN - October, 2011

Change the Weather History Date:

Friday, October 14, 2011

  Actual Average Record
Temperature  
Mean Temperature 54 °F 52 °F  
Max Temperature 61 °F 65 °F 82 °F (1940)
Min Temperature 46 °F 39 °F 18 °F (1988)
Degree Days  
Heating Degree Days 11 13  
Month to date heating degree days 144 157  
Since 1 July heating degree days 243 317  
Cooling Degree Days 0 0  
Month to date cooling degree days 0 0  
Year to date cooling degree days 699 471  
Growing Degree Days 2 (Base 50)    
Moisture  
Dew Point 48 °F    
Average Humidity 76    
Maximum Humidity 100    
Minimum Humidity 51    
Precipitation  
Precipitation 0.57 in 0.09 in 1.14 in (1942)
Month to date precipitation 2.66 1.30  
Year to date precipitation 42.75 37.74  
Snow  
Snow 0.00 in 0.00 in T in (1937)
Month to date snowfall 0.0 0.0  
Since 1 September snowfall 0.0 0.0  
Snow Depth 0.00 in    
Sea Level Pressure  
Sea Level Pressure 29.59 in    
Wind  
Wind Speed 9 mph (SW)    
Max Wind Speed 26 mph    
Max Gust Speed 37 mph    
Visibility 7 miles    
Events Fog , Rain    
T = Trace of Precipitation, MM = Missing Value Source: NWS Daily Summary

Daily Weather History Graph

Daily Weather History Graph

Search for Another Location

Airport or City:

Trip Planner

Search our weather history database for the weather conditions in past years. The results will help you decide how hot, cold, wet, or windy it might be!

Date:

Astronomy

Oct. 14, 2011 Rise Set
Actual Time 7:27 AM EDT 6:42 PM EDT
Civil Twilight 7:00 AM EDT 7:09 PM EDT
Nautical Twilight 6:29 AM EDT 7:40 PM EDT
Astronomical Twilight 5:58 AM EDT 8:11 PM EDT
Moon 7:57 PM EDT (10/14) 9:52 AM EDT (10/14)
Length of Visible Light 12h 08m
Length of Day
11h 15m
Waning Gibbous, 94% of the Moon is Illuminated
Oct 14
Waning Gibbous
Oct 19
Last Quarter
Oct 26
New
Nov 2
First Quarter
Nov 10
Full

Hourly Weather History & Observations

Time (EDT) Temp. Dew Point Humidity Pressure Visibility Wind Dir Wind Speed Gust Speed Precip Events Conditions
12:06 AM 51.8 °F 51.8 °F 100% 29.56 in 1.8 mi Calm Calm - N/A   Scattered Clouds
12:13 AM 51.8 °F 51.8 °F 100% 29.56 in 0.8 mi Calm Calm - N/A   Mostly Cloudy
12:23 AM 51.8 °F 51.8 °F 100% 29.55 in 0.2 mi Calm Calm - N/A Fog Fog
12:35 AM 51.8 °F 50.0 °F 94% 29.55 in 0.5 mi Calm Calm - N/A Fog Fog
12:51 AM 54.0 °F 54.0 °F 100% 29.55 in 0.8 mi South 3.5 mph - N/A   Mostly Cloudy
12:58 AM 53.6 °F 53.6 °F 100% 29.56 in 2.5 mi SE 5.8 mph - N/A   Mostly Cloudy
1:05 AM 55.4 °F 53.6 °F 94% 29.56 in 9.0 mi SE 3.5 mph - N/A   Overcast
1:51 AM 54.0 °F 53.1 °F 97% 29.54 in 10.0 mi Calm Calm - N/A   Scattered Clouds
2:51 AM 53.1 °F 53.1 °F 100% 29.53 in 9.0 mi Calm Calm - N/A   Mostly Cloudy
3:26 AM 53.6 °F 53.6 °F 100% 29.54 in 6.0 mi WNW 4.6 mph - 0.00 in Rain Light Rain
3:51 AM 54.0 °F 54.0 °F 100% 29.52 in 10.0 mi Calm Calm - 0.00 in   Overcast
4:51 AM 55.9 °F 55.0 °F 97% 29.51 in 7.0 mi Calm Calm - 0.01 in Rain Rain
5:51 AM 55.9 °F 55.0 °F 97% 29.51 in 10.0 mi Calm Calm - 0.05 in Rain Light Rain
6:40 AM 55.4 °F 53.6 °F 94% 29.52 in 2.0 mi SSE 3.5 mph - 0.11 in Rain Rain
6:49 AM 55.4 °F 53.6 °F 94% 29.52 in 4.0 mi Variable 4.6 mph - 0.12 in Rain Light Rain
6:51 AM 55.9 °F 54.0 °F 93% 29.52 in 2.5 mi Variable 4.6 mph - 0.12 in Rain Heavy Rain
6:58 AM 55.4 °F 53.6 °F 94% 29.53 in 1.8 mi SSW 3.5 mph - 0.08 in Rain Heavy Rain
7:03 AM 55.4 °F 53.6 °F 94% 29.53 in 3.0 mi SSW 3.5 mph - 0.10 in Rain Rain
7:16 AM 55.4 °F 53.6 °F 94% 29.53 in 4.0 mi Variable 3.5 mph - 0.14 in Rain Rain
7:51 AM 55.9 °F 53.1 °F 90% 29.52 in 8.0 mi SW 4.6 mph - 0.17 in Rain Light Rain
8:26 AM 53.6 °F 48.2 °F 82% 29.57 in 6.0 mi West 18.4 mph 33.4 mph 0.04 in Rain Rain
8:38 AM 53.6 °F 48.2 °F 82% 29.59 in 10.0 mi West 13.8 mph 24.2 mph 0.05 in Rain Light Rain
8:51 AM 53.1 °F 48.0 °F 83% 29.60 in 10.0 mi WSW 9.2 mph 19.6 mph 0.05 in   Overcast
9:51 AM 55.0 °F 48.9 °F 80% 29.60 in 10.0 mi WSW 10.4 mph 21.9 mph 0.00 in   Overcast
10:18 AM 55.4 °F 48.2 °F 77% 29.60 in 10.0 mi WSW 10.4 mph 16.1 mph N/A   Overcast
10:51 AM 55.9 °F 46.0 °F 69% 29.61 in 10.0 mi West 15.0 mph 23.0 mph N/A   Mostly Cloudy
11:51 AM 59.0 °F 45.0 °F 60% 29.60 in 10.0 mi West 17.3 mph 24.2 mph N/A   Scattered Clouds
12:51 PM 59.0 °F 43.0 °F 55% 29.61 in 10.0 mi WSW 17.3 mph 28.8 mph N/A   Partly Cloudy
1:51 PM 57.0 °F 41.0 °F 55% 29.62 in 10.0 mi WSW 17.3 mph 28.8 mph N/A   Mostly Cloudy
2:51 PM 55.9 °F 39.0 °F 53% 29.64 in 10.0 mi West 17.3 mph 25.3 mph 0.00 in   Mostly Cloudy
3:51 PM 54.0 °F 39.0 °F 57% 29.65 in 10.0 mi WSW 13.8 mph 25.3 mph 0.00 in   Scattered Clouds
4:51 PM 55.0 °F 37.9 °F 53% 29.64 in 10.0 mi WSW 18.4 mph 31.1 mph N/A   Clear
5:51 PM 53.6 °F 39.2 °F 58% 29.67 in 10.0 mi WSW 10.4 mph 19.6 mph N/A   Scattered Clouds
6:51 PM 48.9 °F 39.9 °F 71% 29.72 in 4.0 mi WSW 15.0 mph 36.8 mph 0.05 in Rain Light Rain
7:51 PM 48.0 °F 42.1 °F 80% 29.72 in 10.0 mi SSW 3.5 mph - 0.01 in Rain Light Rain
8:51 PM 46.9 °F 44.1 °F 90% 29.74 in 10.0 mi Calm Calm - 0.02 in   Overcast
9:51 PM 48.9 °F 42.1 °F 77% 29.75 in 10.0 mi Variable 3.5 mph - 0.00 in   Overcast
10:51 PM 50.0 °F 42.1 °F 74% 29.77 in 10.0 mi West 8.1 mph 24.2 mph 0.03 in Rain Light Rain
11:51 PM 48.9 °F 42.1 °F 77% 29.76 in 10.0 mi WSW 11.5 mph - 0.04 in Rain Light Rain